This demonstration page uses our WeatherBlox Daily Observations layout. Learn more.

Left ArrowRight Arrow

36.19886, -115.1175

Hourly Observations for May 15, 2020

Temp ( °F °C ) Dew Point ( °F °C ) Humidity (%) Winds ( mph kmh ) Pressure ( in mb ) Visibility ( mi km ) Precip ( " mm )
12:53 am 00:53 Clear 75 23.9 33 0.6 22 22 WSW 3 6 29.79 1009 10 16 N/A
1:53 am 01:53 Clear 71 21.7 33 0.6 25 25 NW 3 6 29.80 1009 10 16 N/A
2:53 am 02:53 Clear 71 21.7 35 1.7 27 27 NNE 6 9 29.80 1009 10 16 N/A
3:53 am 03:53 Clear 70 21.1 35 1.7 28 28 N 6 9 29.80 1009 10 16 N/A
4:53 am 04:53 Clear 69 20.6 36 2.2 30 30 N 3 6 29.82 1010 10 16 N/A
5:53 am 05:53 Sunny 68 20 33 0.6 27 27 N 3 6 29.84 1010 10 16 N/A
6:53 am 06:53 Sunny 71 21.7 36 2.2 28 28 N 8 13 29.85 1011 10 16 N/A
7:53 am 07:53 Sunny 75 23.9 37 2.8 25 25 NNE 8 13 29.86 1011 10 16 N/A
8:53 am 08:53 Sunny 80 26.7 34 1.1 19 19 NNW 10 17 29.86 1011 10 16 N/A
9:53 am 09:53 Sunny 81 27.2 32 undefined 17 17 ENE 8 13 29.86 1011 10 16 N/A
10:53 am 10:53 Sunny 83 28.3 34 1.1 17 17 E 6 9 29.87 1012 10 16 N/A
11:53 am 11:53 Sunny 84 28.9 34 1.1 17 17 VRB 6 9 29.86 1011 10 16 N/A
12:53 pm 12:53 Sunny 86 30 34 1.1 15 15 VRB 3 6 29.84 1010 10 16 N/A
1:53 pm 13:53 Sunny 87 30.6 33 0.6 14 14 N N/A 29.83 1010 10 16 N/A
2:53 pm 14:53 Sunny 88 31.1 32 undefined 13 13 VRB 3 6 29.80 1009 10 16 N/A
3:53 pm 15:53 Sunny 89 31.7 33 0.6 14 14 VRB 3 6 29.78 1008 10 16 N/A
4:53 pm 16:53 Sunny 90 32.2 33 0.6 13 13 undefined N/A 29.76 1008 10 16 N/A
5:53 pm 17:53 Sunny 90 32.2 32 undefined 13 13 SSW 5 7 29.75 1008 10 16 N/A
6:53 pm 18:53 Sunny 89 31.7 31 -0.6 12 12 SE 3 6 29.76 1008 10 16 N/A
7:53 pm 19:53 Clear 87 30.6 32 undefined 14 14 SSE 8 13 29.76 1008 10 16 N/A
8:53 pm 20:53 Clear 86 30 33 0.6 15 15 S 7 11 29.77 1008 10 16 N/A
9:53 pm 21:53 Clear 84 28.9 34 1.1 17 17 SE 8 13 29.79 1009 10 16 N/A
10:53 pm 22:53 Clear 83 28.3 35 1.7 18 18 SSW 5 7 29.79 1009 10 16 N/A
11:53 pm 23:53 Clear 78 25.6 35 1.7 21 21 WNW 3 6 29.80 1009 10 16 N/A

Powered by AerisWeather